#timestamp,LO_Frequency,Hit,StdDev 
1536350415.3,286047000.8,N
1536350435.1,286046998.1,N
1536350455.9,286047000.2,N
1536350475.7,286047001.9,N
1536350495.6,286047004.4,N
1536350515.4,286047004.4,N
1536350535.2,286047002.4,N
1536350555.1,286047002.3,N
1536350556.0,286047002.3,N
1536350575.8,286047001.4,N
1536350595.6,286047004.2,N
1536350615.5,286047003.7,N
1536350635.3,286047003.1,N
1536350655.2,286047003.2,N
1536350675.9,286047003.3,N
1536350695.7,286047005.1,N
1536350715.6,286047006.9,Y
1536350735.4,286047004.4,P
1536350755.3,286047002.9,N
1536350775.1,286047005.3,P
1536350776.0,286047005.3,Y
1536350795.8,286046999.8,P
1536350815.7,286047002.0,N
1536350835.5,286046999.7,N
1536350855.3,286047000.9,N
1536350875.2,286047002.4,N
1536350895.0,286046999.9,N
1536350895.9,286046999.9,N
1536350915.8,286047002.8,N
1536350935.6,286047002.1,N
1536350955.4,286047001.8,N
1536350975.3,286046999.8,N
1536350995.1,286047002.8,N
1536351015.9,286047002.1,N
1536351035.7,286047002.2,N
1536351055.5,286046999.7,N
1536351075.4,286046999.8,N
1536351095.2,286047002.5,N
1536351115.0,286047004.0,Y
1536351116.0,286047004.0,P
1536351135.8,286046999.7,N
1536351155.6,286047002.7,N
1536351175.5,286047001.0,N
1536351195.3,286046998.4,N
1536351215.1,286046998.2,N
1536351235.9,286047001.1,N
1536351255.7,286047000.4,N
1536351275.6,286047000.7,N
1536351295.4,286046998.6,N
1536351315.2,286046998.1,N
1536351335.1,286046998.7,N
1536351336.0,286046998.7,N
1536351355.8,286047000.7,N
1536351375.7,286047000.3,N
1536351395.5,286047001.2,N
1536351415.3,286047000.4,N
1536351435.2,286046999.7,N
1536351455.9,286047002.7,N
1536351475.7,286047000.2,N
1536351495.6,286047001.1,N
1536351515.4,286047000.1,N
1536351535.3,286046999.7,N
1536351555.1,286047002.7,N
1536351556.0,286047002.7,N
1536351575.8,286047002.3,N
1536351595.7,286047002.2,N
1536351615.5,286047002.8,N
1536351635.3,286047000.1,N
1536351655.2,286047000.6,N
1536351675.0,286047000.1,N
1536351675.9,286047000.1,N
1536351695.8,286047004.2,N
1536351715.6,286047003.1,N
1536351735.4,286047002.9,N
1536351755.3,286047001.8,N
1536351775.1,286047001.8,N
1536351795.8,286047004.3,N
1536351815.7,286047003.7,N
1536351835.5,286047004.3,N
1536351855.4,286047002.3,N
1536351875.2,286047001.4,N
1536351895.0,286047002.1,N
1536351895.9,286047002.1,N
1536351915.8,286047002.4,N
1536351935.6,286047003.4,N
1536351955.4,286047003.1,N
1536351975.3,286047006.0,Y
1536351995.1,286047003.9,P
1536352015.9,286047003.1,P
1536352035.7,286047005.5,P
1536352055.5,286047003.7,N
1536352075.4,286047003.0,N
1536352095.2,286047004.7,Y
1536352115.1,286047002.4,P
1536352116.0,286047002.4,P
1536352135.8,286047004.1,P
1536352155.6,286047002.8,Y
1536352175.5,286046997.7,P
1536352195.3,286047001.1,N
1536352215.1,286047000.8,N
1536352235.9,286047011.9,Y
1536352255.7,286047001.7,P
1536352275.6,286046999.7,N
1536352295.4,286047002.7,P
1536352315.2,286047002.5,N
1536352335.1,286047002.0,N
1536352336.0,286047002.0,N
1536352355.8,286047001.6,N
1536352375.7,286047005.2,Y
1536352395.5,286047003.1,P
1536352415.3,286047004.4,P
1536352435.2,286047002.6,N
1536352455.9,286047002.5,N
1536352475.7,286047003.8,Y
1536352495.6,286046998.3,P
1536352515.4,286046998.8,N
1536352535.3,286047001.1,N
1536352555.1,286047000.9,N
1536352556.0,286047000.9,N
1536352575.8,286046998.8,N
1536352595.7,286046996.6,N
1536352615.5,286046999.1,N
1536352635.3,286046999.3,N
1536352655.2,286046998.1,N
1536352675.0,286046998.3,N
1536352675.9,286046998.3,N
1536352695.8,286046999.6,N
1536352715.6,286046994.9,Y
1536352735.4,286046995.2,P
1536352755.3,286046993.7,P
1536352775.1,286046993.4,N
1536352795.8,286046995.5,N
1536352815.7,286046995.0,N
1536352835.5,286046995.2,N
1536352855.3,286046995.3,N
1536352875.2,286046997.8,N
1536352895.0,286046998.9,N
1536352895.9,286046998.9,N
1536352915.8,286046999.9,N
1536352935.6,286046999.4,N
1536352955.4,286047000.1,N
1536352975.3,286047001.5,N
1536352995.1,286047002.8,N
1536353015.8,286047000.4,N
1536353035.7,286047004.5,N
1536353055.5,286047007.4,N
1536353075.4,286047004.8,N
1536353095.2,286047002.9,N
1536353115.0,286047003.6,N
1536353115.9,286047003.6,N
1536353135.8,286047001.7,N
1536353155.6,286047003.8,N
1536353175.4,286047002.1,N
1536353195.3,286047003.9,N
1536353215.1,286047001.4,N
1536353235.9,286047003.9,N
1536353255.7,286047001.8,N
1536353275.5,286047002.1,N
1536353295.4,286047002.0,N
1536353315.2,286046999.7,N
1536353335.0,286046999.9,N
1536353336.0,286046999.9,N
1536353355.8,286047002.3,N
1536353375.6,286046999.9,N
1536353395.5,286046999.7,N
1536353415.3,286047002.0,N
1536353435.1,286046999.7,N
1536353455.9,286047001.2,N
1536353475.7,286047000.9,N
1536353495.6,286047000.3,N
1536353515.4,286047001.1,N
1536353535.2,286046998.1,N
1536353555.1,286046998.1,N
1536353556.0,286046998.1,N
1536353575.8,286047000.6,N
1536353595.6,286047000.0,N
1536353615.5,286046998.1,N
1536353635.3,286047000.4,N
1536353655.2,286047002.5,N
1536353675.9,286047002.8,N
1536353695.7,286046998.1,N
1536353715.6,286047000.7,N
1536353735.4,286047000.2,N
1536353755.2,286047002.4,N
1536353775.1,286047002.4,N
1536353776.0,286047002.4,N
1536353795.8,286047002.6,N
1536353815.7,286046999.8,N
1536353835.5,286047002.5,N
1536353855.3,286047003.9,N
1536353875.2,286047004.3,N
1536353895.0,286047002.5,N
1536353895.9,286047002.5,N
1536353915.8,286047001.7,N
1536353935.6,286047003.5,N
1536353955.4,286047003.4,N
1536353975.3,286047003.2,N
1536353995.1,286047003.6,N
